Regional Weather Roundup
Issued by NWS Upton, NY

Home | Current Version | Previous Version | Text Only | Print | Product List | Glossary On
Versions: 1 2 3 4 5 6 7 8 9 10 11 12 13 14 15 16 17 18 19 20 21 22 23 24 25 26 27 28 29 30 31 32 33 34 35 36 37 38 39 40 41 42 43 44 45 46 47 48 49 50
000
ASUS41 KOKX 192205
RWROKX

REGIONAL WEATHER ROUNDUP
NATIONAL WEATHER SERVICE NEW YORK NY
500 PM EST FRI DEC 19 2014

NOTE: "FAIR" INDICATES FEW OR NO CLOUDS BELOW 12,000 FEET WITH NO
SIGNIFICANT WEATHER AND/OR OBSTRUCTIONS TO VISIBILITY.

NYZ071-072-176-178-NJZ106-104-192300-
NEW YORK CITY METRO AREA


CITY           SKY/WX    TMP DP  RH WIND       PRES   REMARKS
CENTRAL PARK   PTCLDY    33  19  56 VRB7      30.11R WCI  27
LAGUARDIA APRT PTCLDY    35  22  58 NW22G28   30.09R WCI  23
KENNEDY INTL   PTCLDY    35  20  54 NW14      30.10R WCI  26
NEWARK/LIBERTY MOCLDY    33  21  61 NW14G24   30.11R WCI  23
BRNX BOT. GARD   N/A    N/A N/A N/A NW13      30.09S
TETERBORO      MOCLDY    34  20  56 NW8       30.09R WCI  27
$$

NYZ177-179-078>081-192300-
LONG ISLAND NEW YORK

CITY           SKY/WX    TMP DP  RH WIND       PRES   REMARKS
FARMINGDALE    PTCLDY    36  21  54 NW12      30.07R WCI  28
ISLIP          MOCLDY    37  22  54 NW12      30.04R WCI  29
SHIRLEY        CLOUDY    37  23  56 N13       30.05R WCI  29
WESTHAMPTON    MOCLDY    36  22  56 N9        30.06R WCI  29
MONTAUK POINT    N/A     37  24  59 NW13G21   30.04R WCI  29
$$

NYZ052-065-067-192300-
HUDSON VALLEY

CITY           SKY/WX    TMP DP  RH WIND       PRES   REMARKS
WHITE PLAINS   MOCLDY    33  21  61 NW12      30.05R WCI  24
NEWBURGH       NOT AVBL
MONTGOMERY     CLOUDY    31  20  63 NW8       30.08R WCI  23
POUGHKEEPSIE   CLOUDY    34  20  56 N7        30.09R WCI  28
ALBANY         CLOUDY    29  20  69 NW13      30.12R WCI  19
$$

NJZ001-105-106-008-010-013-015-019>022-104-192300-
NEW JERSEY

CITY           SKY/WX    TMP DP  RH WIND       PRES   REMARKS
NEWARK/LIBERTY MOCLDY    33  21  61 NW14G24   30.11R WCI  23
TETERBORO      MOCLDY    34  20  56 NW8       30.09R WCI  27
CALDWELL       CLOUDY    32  20  61 NW8       30.11R WCI  25
MORRISTOWN     NOT AVBL
SOMERVILLE     CLOUDY    34  21  59 NW13G23   30.10R WCI  25
SUSSEX         CLOUDY    30  20  66 VRB3      30.10R
ANDOVER          N/A     29  20  69 VRB6G17   30.11R WCI  23
TRENTON        CLEAR     34  21  59 N10       30.10R WCI  26
MILLVILLE      CLEAR     37  23  56 NW7       30.11R WCI  32
ATLANTIC CITY  CLEAR     36  23  59 W7        30.10R WCI  30
WRIGHTSTOWN    CLEAR     35  21  56 NW13      30.08R WCI  27
TOMS RIVER     CLEAR     36  21  55 NW5       30.10R WCI  32
BELMAR         CLEAR     36  18  48 NW9       30.08R WCI  29
$$

PAZ047>061-062-071-192300-
EASTERN PENNSYLVANIA

CITY           SKY/WX    TMP DP  RH WIND       PRES   REMARKS
PHILADELPHIA   PTCLDY    40  21  46 NW10G21   30.12R WCI  33
ALLENTOWN      PTCLDY    34  21  59 N10       30.13R WCI  26
SCRANTON       CLOUDY    30  19  63 NW9       30.12R WCI  22
$$

CTZ002-004>006-009-010-012-RIZ004-006-007-MAZ004-011-015-192300-
SOUTHERN NEW ENGLAND
 IN CT

CITY           SKY/WX    TMP DP  RH WIND       PRES   REMARKS
BRADLEY INTL   CLOUDY    32  20  61 NW12      30.05R WCI  23
HARTFORD       CLOUDY    33  20  58 W8G20     30.07R WCI  26
DANBURY        CLOUDY    32  19  58 N13       30.07R WCI  22
WTRBRY/OXFORD  MOCLDY    36  16  44 N12       30.05R WCI  27
BRIDGEPORT     MOCLDY    36  22  56 N14       30.06R WCI  27
MERIDEN        CLOUDY    32  20  61 NW10      30.07R WCI  24
NEW HAVEN      MOCLDY    36  21  54 N16G26    30.06R WCI  26
CHESTER        CLOUDY    32  23  69 NW6       30.04R WCI  26
GROTON         CLOUDY    34  22  61 NW13      30.04R WCI  25
WILLIMANTIC    CLOUDY    33  21  61 NW9       30.04R WCI  25

 IN RI

CITY           SKY/WX    TMP DP  RH WIND       PRES   REMARKS
PROVIDENCE     CLOUDY    34  21  59 NW12      30.03R WCI  25
BLOCK ISLAND   CLOUDY    36  21  55 NW10G16   30.02R WCI  28
WESTERLY       CLOUDY    35  22  58 NW6       30.04R WCI  30

 IN MA

CITY           SKY/WX    TMP DP  RH WIND       PRES   REMARKS
BOSTON         PTCLDY    33  21  61 NW13      30.03R WCI  24
WORCESTER      CLOUDY    29  20  69 NW12      29.99R WCI  19
WESTFIELD      CLOUDY    32  20  61 NW13      30.05R WCI  22
PROVINCETOWN   CLOUDY    37  25  60 NW12      30.00R WCI  30
NANTUCKET      CLOUDY    36  23  59 NW10      30.00R WCI  28
$$

ANZ330-335-338-340-345-350-353-355-192300-
COASTAL MARINE OBSERVATIONS


STATION/POSITION TIME  SKY/WX   TEMP    WIND        PRES    VSBY  WAVE
                                AIR SEA DIR/SP/G                  HT/PER
                 (UTC)          (F)     (DEG/KT/KT) (MB)    (MI)  (FT/S)
NY HARB ENTRANCE 2200            37 47  310/ 19/ 25 1018.3          3/ 4
4S FIRE IS       2200               47                N/A           2/ 4
20S FIRE ISLAND  2100            40 49              1017.6          3/ 4
23SW MTP         2200                                 N/A           3/ 4
HUDSON CANYON    2200            39 56  320/ 17/ 23 1016.9          5/ 6
EXECUTION ROCKS  2200            37 42  340/ 14/ 21   N/A
WESTERN LI SOUND 2200            37     310/ 14/ 17   N/A           1/ 2
CENTRAL LI SOUND 2100            36 44  320/ 16/ 21   N/A           2/ 3
EASTERN LI SOUND NOT AVBL
ROBBINS REEF     2200            34     340/  9/ 16 1018.0
$$


>>>>>>>>>>>>>>>>>>>>>>>>>>>> KEY <<<<<<<<<<<<<<<<<<<<<<<<<<<
>                                                          <
>     SKY/WX - SKY CONDITION/PRESENT WEATHER               <
>     TMP    - TEMPERATURE IN FAHRENHEIT                   <
>     DP     - DEWPOINT IN FAHRENHEIT                      <
>     RH     - RELATIVE HUMIDITY IN PERCENT                <
>     WIND   - DIRECTION AND SPEED IN MPH                  <
>     PRES   - MEAN SEA LEVEL PRESSURE IN INCHES OF HG     <
>     WCI    - WIND CHILL INDEX                            <
>     VSB    - VISIBILITY IN MILES                         <
>     HX     - HEAT INDEX                                  <
>     TC     - TEMPERATURE IN CELSIUS                      <
>     VRB    - VARIABLE WIND DIRECTION                     <
>                                                          <
>>>>>>>>>>>>>>>>>>>>>>>>>>>> KEY <<<<<<<<<<<<<<<<<<<<<<<<<<<





USA.gov is the U.S. government's official web portal to all federal, state and local government web resources and services.